Location: ?astrovice
(49.6513°N, 14.9287°E)
Time: 03:09:22
(UTC+00:00)

Cosmos 1300 - Pass Details

Date: 09 April 2020
Orbit: 511 x 515 km, 82.5° (Epoch: 04 June)

Event Time Altitude Azimuth Distance (km) Brightness Sun altitude
Exits shadow 18:42:58 - 160° (SSE) 2,182 5.5 -9.7°
Reaches altitude 10° 18:44:08 10° 154° (SSE) 1,737 4.9 -9.9°
Maximum altitude 18:47:32 31° 91° (E) 918 3.5 -10.4°
Drops below altitude 10° 18:50:57 10° 28° (NNE) 1,753 5.4 -10.9°
Sets 18:53:15 0° 19° (NNE) 2,646 6.4 -11.2°
